[[{"header":{"parameterUnit":"m.s-1","parameterCategory":1,"la1":30.2991,"la2":30.254,"lo1":-89.0895,"lo2":-89.0444,"dy":0.0017,"dx":0.0017,"nx":28,"ny":28,"refTime":"2024-11-30T09:00:00:Z","depth":0,"parameterNumber":2,"parameterNumberName":"U-component_of_WINDS"},"data":[0,0,0,0,0,0,0,0,0,0,0,0,0,0,0,0,0,0,0,0,0,0,0,0,0,0,0,0,0,0,0,0,0,0,0,0,0,0,0,0,0,0,0,0,0,0,0,0,0,0,0,0,0,0,0,0,0,0,-3.1126,-3.1127,0,-3.1268,-3.127,-3.1271,-3.1274,-3.1272,-3.127,-3.1268,-3.1412,-3.1417,-3.1423,0,0,0,0,0,0,0,0,0,0,0,0,0,-3.0854,-3.0858,-3.1125,-3.1127,-3.1129,-3.1268,-3.127,-3.1272,-3.1274,-3.1272,-3.1269,-3.1267,-3.141,-3.1417,-3.1423,0,0,0,0,0,0,0,0,0,0,0,0,0,-3.0981,-3.086,-3.1125,-3.1147,-3.115,-3.1267,-3.127,-3.1272,-3.1274,-3.1272,-3.1269,-3.1266,-3.1408,-3.1416,-3.1424,-3.1528,0,0,-3.1449,-3.1453,0,0,0,0,0,0,0,0,-3.0974,-3.0991,-3.1142,-3.1146,-3.115,-3.125,-3.1226,-3.1358,-3.1275,-3.1227,-3.1268,-3.1265,-3.136,-3.1372,-3.1405,-3.1535,-3.1541,-3.145,-3.1455,-3.1459,-3.1461,0,0,0,0,0,0,0,-3.0965,-3.0985,-3.1182,-3.1144,-3.1149,-3.1149,-3.1164,-3.1251,-3.1307,-3.1231,-3.1232,-3.1249,-3.1362,-3.1397,-3.1408,-3.1543,-3.145,-3.1457,-3.1462,-3.1465,-3.1765,-3.1768,0,0,0,0,0,0,-3.0952,-3.0978,-3.1177,-3.1186,-3.1054,-3.1156,-3.1173,-3.1221,-3.1306,-3.1316,-3.1251,-3.1248,-3.1384,-3.1398,-3.1413,-3.1539,-3.1458,-3.1466,-3.1471,-3.1762,-3.1766,-3.1769,0,0,0,0,0,0,-3.0946,-3.097,-3.1172,-3.1082,-3.1108,-3.1164,-3.1217,-3.1225,-3.126,-3.1321,-3.133,-3.1276,-3.1382,-3.1402,-3.1499,-3.1544,-3.147,-3.1477,-3.1758,-3.1763,-3.1767,-3.1792,0,0,0,0,0,0,-3.0939,-3.0968,-3.1008,-3.1083,-3.1113,-3.1256,-3.122,-3.123,-3.1274,-3.1272,-3.1347,-3.1357,-3.1382,-3.1487,-3.1508,-3.1554,-3.1484,-3.1754,-3.176,-3.1766,-3.1788,-3.1797,-3.1805,0,0,0,0,0,-3.0929,-3.101,-3.101,-3.1035,-3.1165,-3.1259,-3.1275,-3.1303,-3.1278,-3.1318,-3.1358,-3.1355,-3.1537,-3.1497,-3.152,-3.157,-3.1752,-3.1759,-3.1765,-3.1784,-3.1795,-3.1805,0,0,0,0,0,0,-3.0938,-3.102,-3.1022,-3.1129,-3.1187,-3.1259,-3.1311,-3.1314,-3.138,-3.1375,-3.1406,-3.1423,-3.152,-3.1555,-3.151,-3.1674,-3.1641,-3.1653,-3.1647,-3.1659,-3.1667,-3.1655,-3.1491,0,0,0,0,0,-3.0953,-3.1023,-3.1091,-3.1179,-3.1208,-3.1255,-3.1297,-3.1313,-3.1374,-3.1398,-3.1444,-3.1503,-3.1573,-3.1618,-3.1686,-3.1794,-3.1809,-3.184,-3.1848,-3.1855,-3.1864,-3.1922,-3.1935,-3.1791,-3.1791,-3.1791,0,0,-3.0984,-3.1037,-3.1079,-3.1182,-3.1229,-3.13,-3.1275,-3.1352,-3.1404,-3.1409,-3.1504,-3.154,-3.1608,-3.171,-3.1758,-3.1743,-3.1908,-3.1864,-3.1869,-3.1874,-3.193,-3.1944,-3.1956,-3.1796,-3.1795,-3.1794,0,0,-3.1075,-3.1124,-3.1202,-3.1249,-3.132,-3.1351,-3.137,-3.1442,-3.1466,-3.1562,-3.1567,-3.163,-3.1751,-3.1798,-3.1838,-3.1948,-3.1947,-3.197,-3.2014,-3.207,-3.2082,-3.2092,-3.2129,-3.2142,-3.1979,-3.1979,-3.1979,0,-3.1104,-3.1211,-3.1241,-3.1318,-3.1362,-3.1371,-3.145,-3.1494,-3.1584,-3.1614,-3.1596,-3.1748,-3.1794,-3.1907,-3.1934,-3.1967,-3.1988,-3.196,-3.2078,-3.2088,-3.2098,-3.2134,-3.2148,-3.1981,-3.1981,-3.1981,-3.1981,0,-3.1242,-3.1317,-3.1371,-3.1458,-3.1509,-3.1586,-3.1626,-3.1675,-3.1687,-3.1719,-3.1816,-3.1872,-3.1951,-3.198,-3.1992,-3.2095,-3.2083,-3.2071,-3.2038,-3.2113,-3.2147,-3.2161,-3.1984,-3.1983,-3.1983,-3.1982,0,0,-3.1341,-3.1444,-3.1463,-3.1502,-3.1581,-3.1639,-3.1717,-3.1795,-3.1834,-3.1897,-3.1961,-3.2063,-3.2053,-3.2098,-3.2117,-3.2166,-3.2247,-3.2149,-3.2151,-3.2163,-3.2361,-3.2366,-3.2382,-3.2249,-3.2251,-3.2254,-3.2354,0,-3.1439,-3.1577,-3.1606,-3.1724,-3.1793,-3.1803,-3.1871,-3.1926,-3.1959,-3.2021,-3.2057,-3.2128,-3.2111,-3.2138,-3.2188,-3.2227,-3.2287,-3.222,-3.2307,-3.2309,-3.2286,-3.24,-3.2406,-3.2498,-3.2368,-3.237,-3.2372,0,-3.1571,-3.1636,-3.1761,-3.1831,-3.1861,-3.1921,-3.1994,-3.2054,-3.2118,-3.2138,-3.2189,-3.2202,-3.2282,-3.2247,-3.2357,-3.2311,-3.2348,-3.2373,-3.2377,-3.2384,-3.2343,-3.2406,-3.2529,-3.2541,-3.2393,-3.2392,-3.239,0,-3.1627,-3.1746,-3.1836,-3.187,-3.1954,-3.1996,-3.2033,-3.2094,-3.2139,-3.2203,-3.2232,-3.2305,-3.2344,-3.24,-3.2432,-3.2404,-3.2538,-3.2506,-3.2555,-3.2554,-3.258,-3.2578,-3.2707,-3.261,-3.261,-3.2609,-3.2609,0,-3.1731,-3.1807,-3.1862,-3.1917,-3.2002,-3.2036,-3.2118,-3.2155,-3.2209,-3.2271,-3.2286,-3.2343,-3.2384,-3.2447,-3.2473,-3.2558,-3.2577,-3.2594,-3.2599,-3.2591,-3.2588,-3.2613,-3.2606,-3.2613,-3.2612,-3.2611,-3.2611,0,-3.1806,-3.1847,-3.1946,-3.2018,-3.2038,-3.2097,-3.2159,-3.2212,-3.2246,-3.2323,-3.2344,-3.2396,-3.2471,-3.2509,-3.2603,-3.262,-3.2716,-3.2719,-3.2694,-3.2696,-3.2741,-3.2735,-3.2889,-3.291,-3.2801,-3.2802,-3.2803,0,-3.1869,-3.1927,-3.2006,-3.2048,-3.2086,-3.2155,-3.2201,-3.2236,-3.2283,-3.236,-3.2404,-3.248,-3.2542,-3.2661,-3.2707,-3.2778,-3.2781,-3.283,-3.2792,-3.2781,-3.2779,-3.2773,-3.2778,-3.2836,-3.2837,-3.2838,-3.2838,0,-3.1974,-3.1991,-3.2057,-3.213,-3.2184,-3.2243,-3.2301,-3.2335,-3.238,-3.2432,-3.2509,-3.2557,-3.2653,-3.2727,-3.2802,-3.284,-3.2846,-3.2851,-3.2865,-3.2855,-3.2837,-3.2845,-3.2709,-3.2846,-3.2845,-3.2845,-3.2844,-3.2844,-3.2043,-3.2094,-3.2158,-3.223,-3.2278,-3.2332,-3.2385,-3.2426,-3.2491,-3.2571,-3.2589,-3.267,-3.2731,-3.2833,-3.2873,-3.2936,-3.2925,-3.2947,-3.2952,-3.2956,-3.2957,-3.283,-3.295,-3.295,-3.295,-3.295,-3.295,0,-3.2146,-3.2188,-3.2254,-3.2335,-3.2392,-3.2395,-3.2459,-3.2506,-3.2577,-3.2635,-3.2696,-3.2784,-3.2856,-3.2908,-3.2982,-3.3022,-3.3027,-3.304,-3.3036,-3.3044,-3.2963,-3.2942,-3.3035,-3.3035,-3.3035,-3.3035,-3.3035,-3.3035,-3.2206,-3.2293,-3.2318,-3.2429,-3.247,-3.2549,-3.2586,-3.2635,-3.2681,-3.2779,-3.2839,-3.2873,-3.2928,-3.3006,-3.3072,-3.3086,-3.3111,-3.3123,-3.3136,-3.3059,-3.305,-3.3041,-3.3021,-3.3129,-3.313,-3.3212,-3.3212,-3.3213]},{"header":{"parameterUnit":"m.s-1","parameterCategory":1,"la1":30.2991,"la2":30.254,"lo1":-89.0895,"lo2":-89.0444,"dy":0.0017,"dx":0.0017,"nx":28,"ny":28,"refTime":"2024-11-30T09:00:00:Z","depth":0,"parameterNumber":3,"parameterNumberName":"V-component_of_WINDS"},"data":[0,0,0,0,0,0,0,0,0,0,0,0,0,0,0,0,0,0,0,0,0,0,0,0,0,0,0,0,0,0,0,0,0,0,0,0,0,0,0,0,0,0,0,0,0,0,0,0,0,0,0,0,0,0,0,0,0,0,-0.3986,-0.3985,0,-0.3951,-0.395,-0.395,-0.3985,-0.3986,-0.3987,-0.3989,-0.3952,-0.395,-0.3948,0,0,0,0,0,0,0,0,0,0,0,0,0,-0.4082,-0.408,-0.3986,-0.3985,-0.3985,-0.3951,-0.395,-0.395,-0.3984,-0.3986,-0.3988,-0.3989,-0.3953,-0.395,-0.3947,0,0,0,0,0,0,0,0,0,0,0,0,0,-0.4043,-0.4079,-0.3986,-0.3998,-0.3999,-0.3951,-0.395,-0.395,-0.3984,-0.3986,-0.3988,-0.399,-0.3954,-0.395,-0.3947,-0.3885,0,0,-0.3937,-0.3935,0,0,0,0,0,0,0,0,-0.4045,-0.4039,-0.3997,-0.3997,-0.3998,-0.3974,-0.3971,-0.3928,-0.3984,-0.399,-0.3989,-0.3991,-0.3958,-0.3954,-0.3943,-0.3884,-0.3882,-0.3937,-0.3934,-0.3933,-0.3932,0,0,0,0,0,0,0,-0.4047,-0.4041,-0.3972,-0.3996,-0.3997,-0.4005,-0.4002,-0.3963,-0.3963,-0.3989,-0.3992,-0.3987,-0.3958,-0.3946,-0.3943,-0.3882,-0.3937,-0.3934,-0.3932,-0.393,-0.377,-0.3768,0,0,0,0,0,0,-0.4049,-0.4043,-0.3973,-0.3971,-0.4027,-0.4002,-0.3998,-0.398,-0.3963,-0.3963,-0.3985,-0.3989,-0.3951,-0.3946,-0.3941,-0.3868,-0.3933,-0.393,-0.3928,-0.3772,-0.3769,-0.3767,0,0,0,0,0,0,-0.4051,-0.4042,-0.3974,-0.4007,-0.3999,-0.3998,-0.3977,-0.3978,-0.3966,-0.396,-0.396,-0.3973,-0.3952,-0.3946,-0.3899,-0.3867,-0.3928,-0.3925,-0.3775,-0.3771,-0.3768,-0.372,0,0,0,0,0,0,-0.4053,-0.4043,-0.4019,-0.4007,-0.3997,-0.3933,-0.3975,-0.3976,-0.396,-0.3964,-0.3949,-0.3948,-0.3954,-0.3904,-0.3896,-0.3863,-0.3923,-0.3777,-0.3773,-0.3769,-0.3724,-0.3715,-0.3708,0,0,0,0,0,-0.4057,-0.4007,-0.4018,-0.4009,-0.3968,-0.3931,-0.3925,-0.3933,-0.3957,-0.3933,-0.393,-0.3948,-0.3872,-0.3899,-0.389,-0.3856,-0.378,-0.3774,-0.3769,-0.3728,-0.3717,-0.3708,0,0,0,0,0,0,-0.4015,-0.4005,-0.4017,-0.3962,-0.3947,-0.3937,-0.3907,-0.3921,-0.3899,-0.3903,-0.3914,-0.391,-0.386,-0.3854,-0.3884,-0.3796,-0.383,-0.3823,-0.3801,-0.3791,-0.3783,-0.3785,-0.392,0,0,0,0,0,-0.4,-0.3971,-0.3963,-0.3915,-0.3907,-0.3908,-0.3892,-0.39,-0.3884,-0.3878,-0.3871,-0.3855,-0.3827,-0.3809,-0.3783,-0.3724,-0.3721,-0.3696,-0.3688,-0.3681,-0.3675,-0.3643,-0.3632,-0.375,-0.375,-0.375,0,0,-0.3967,-0.3958,-0.3939,-0.3907,-0.3896,-0.3865,-0.3903,-0.3868,-0.3845,-0.3872,-0.3828,-0.3822,-0.3805,-0.3752,-0.3728,-0.3745,-0.3642,-0.3675,-0.3669,-0.3667,-0.3636,-0.3625,-0.3615,-0.3747,-0.3747,-0.3748,0,0,-0.3892,-0.3883,-0.3842,-0.383,-0.3813,-0.3815,-0.3805,-0.3792,-0.3789,-0.3745,-0.3764,-0.3738,-0.369,-0.3677,-0.3664,-0.3585,-0.3601,-0.3576,-0.3532,-0.3501,-0.3492,-0.3483,-0.3455,-0.3444,-0.357,-0.357,-0.357,0,-0.3854,-0.3808,-0.3819,-0.3783,-0.3768,-0.3792,-0.375,-0.3738,-0.3714,-0.3703,-0.3722,-0.3663,-0.3654,-0.3597,-0.3578,-0.3567,-0.3556,-0.3578,-0.3492,-0.3484,-0.3476,-0.3449,-0.3438,-0.3567,-0.3567,-0.3568,-0.3568,0,-0.3762,-0.373,-0.3699,-0.3675,-0.3656,-0.3618,-0.3622,-0.3602,-0.3612,-0.3611,-0.3565,-0.3554,-0.3527,-0.3514,-0.3523,-0.3459,-0.347,-0.3491,-0.3525,-0.3462,-0.3437,-0.3426,-0.3563,-0.3564,-0.3565,-0.3565,0,0,-0.3658,-0.3641,-0.363,-0.3619,-0.3603,-0.3578,-0.3541,-0.3514,-0.3497,-0.348,-0.3448,-0.3408,-0.3427,-0.3412,-0.342,-0.3393,-0.333,-0.3417,-0.3416,-0.34,-0.3259,-0.3243,-0.3231,-0.3341,-0.3339,-0.3338,-0.326,0,-0.3582,-0.3518,-0.3526,-0.3464,-0.3434,-0.3457,-0.3424,-0.3411,-0.3409,-0.3384,-0.3382,-0.3353,-0.3381,-0.3372,-0.3346,-0.3343,-0.3302,-0.3349,-0.3312,-0.331,-0.3314,-0.3218,-0.3201,-0.3128,-0.3251,-0.3249,-0.3248,0,-0.3485,-0.3464,-0.3399,-0.3387,-0.3375,-0.3346,-0.3322,-0.3298,-0.3283,-0.3284,-0.3268,-0.3281,-0.3243,-0.3279,-0.3228,-0.3259,-0.3245,-0.3241,-0.3239,-0.3235,-0.3274,-0.3211,-0.3105,-0.3094,-0.3232,-0.3233,-0.3235,0,-0.3415,-0.3371,-0.3326,-0.3317,-0.3302,-0.3281,-0.3274,-0.3261,-0.3245,-0.3225,-0.3214,-0.319,-0.3176,-0.3157,-0.3162,-0.3188,-0.3109,-0.3146,-0.3109,-0.3109,-0.309,-0.3091,-0.2981,-0.3082,-0.3082,-0.3082,-0.3083,0,-0.3329,-0.3288,-0.3295,-0.3267,-0.3222,-0.3233,-0.3188,-0.3184,-0.3172,-0.3144,-0.3163,-0.3136,-0.3145,-0.3119,-0.3123,-0.308,-0.3074,-0.3073,-0.3074,-0.3071,-0.3071,-0.3061,-0.3066,-0.308,-0.308,-0.3081,-0.3081,0,-0.3243,-0.3246,-0.3199,-0.3189,-0.3186,-0.3153,-0.3145,-0.3119,-0.3119,-0.3084,-0.3076,-0.3076,-0.3046,-0.305,-0.3017,-0.302,-0.2966,-0.2974,-0.2971,-0.2972,-0.2935,-0.2938,-0.2813,-0.2797,-0.291,-0.2908,-0.2908,0,-0.3187,-0.3156,-0.3143,-0.3126,-0.3118,-0.3089,-0.3073,-0.3082,-0.3064,-0.3046,-0.3022,-0.2994,-0.2972,-0.2923,-0.2921,-0.2895,-0.2902,-0.286,-0.2899,-0.2896,-0.2901,-0.2903,-0.2899,-0.2852,-0.2851,-0.285,-0.2849,0,-0.3087,-0.309,-0.3066,-0.3042,-0.3023,-0.3004,-0.2988,-0.2973,-0.2981,-0.296,-0.293,-0.2913,-0.2879,-0.2851,-0.2827,-0.282,-0.2836,-0.2838,-0.2828,-0.2823,-0.2822,-0.2822,-0.2949,-0.284,-0.2841,-0.2842,-0.2842,-0.2843,-0.3014,-0.2988,-0.2975,-0.2947,-0.2936,-0.292,-0.2896,-0.2893,-0.2868,-0.2842,-0.2849,-0.2815,-0.2802,-0.2772,-0.2762,-0.2736,-0.2751,-0.2736,-0.2733,-0.2729,-0.2724,-0.2827,-0.2731,-0.2732,-0.2732,-0.2732,-0.2732,0,-0.2915,-0.2908,-0.2883,-0.2859,-0.2838,-0.2855,-0.2838,-0.2819,-0.2789,-0.2775,-0.2753,-0.2719,-0.2692,-0.2687,-0.2662,-0.2641,-0.2648,-0.2634,-0.2635,-0.2634,-0.2712,-0.2723,-0.2629,-0.2629,-0.2629,-0.263,-0.263,-0.263,-0.286,-0.2817,-0.2819,-0.277,-0.2763,-0.273,-0.2719,-0.2705,-0.2694,-0.2655,-0.2633,-0.263,-0.262,-0.2594,-0.257,-0.257,-0.2559,-0.2543,-0.2545,-0.2618,-0.2628,-0.2638,-0.2648,-0.254,-0.254,-0.2468,-0.2468,-0.2467]}]]